User: anonymous   Login
Location: NJAA Observatory
(40.6819°N, 74.8979°W)
Time: 16:40:20
(UTC-04:00)
Language:

Meteor 1-28 Rocket - Orbit

View from above orbital plane
View from above orbital plane
View from above satellite
View from above satellite

Ground track
Ground track

The orbit data is extracted from the following two-line orbital elements,

1 10114U 77057B   17200.93674716 +.00000426 +00000-0 +24892-4 0  9997
2 10114 097.2019 021.5867 0013405 198.2002 161.8754 15.16750112188313
Epoch (UTC): 19 July 2017 22:28:54
Eccentricity: 0.0013405
inclination: 97.2019°
perigee height: 506 km
apogee height: 525 km
right ascension of ascending node: 21.5867°
argument of perigee: 198.2002°
revolutions per day: 15.16750112
mean anomaly at epoch: 161.8754°
orbit number at epoch: 18831

The dashed part of the orbit path shows where the satellite is in the earth's shadow,  

DLR